Weather History for Ozona, TX

Change the Weather History Date:

Monday, November 26, 2012

  Actual Average Record
Temperature  
Mean Temperature 60 °F -  
Max Temperature 75 °F 66 °F 75 °F (2012)
Min Temperature 44 °F 39 °F 33 °F (2013)
Degree Days  
Heating Degree Days 6    
Growing Degree Days 10 (Base 50)    
Moisture  
Dew Point 46 °F    
Average Humidity 70    
Maximum Humidity 100    
Minimum Humidity 34    
Precipitation  
Precipitation 0.00 in - - ()
Sea Level Pressure  
Sea Level Pressure 30.07 in    
Wind  
Wind Speed 5 mph (WSW)    
Max Wind Speed 20 mph    
Max Gust Speed 25 mph    
Visibility 8 miles    
Events Fog    
Averages and records for this station are not official NWS values.
T = Trace of Precipitation, MM = Missing Value Source: NWS Daily Summary

Daily Weather History Graph

Daily Weather History Graph

Search for Another Location

Airport:

Trip Planner

Search our weather history database for the weather conditions in past years. The results will help you decide how hot, cold, wet, or windy it might be!

Date:

Astronomy

Nov. 26, 2012 Rise Set
Actual Time 7:20 AM CST 5:43 PM CST
Civil Twilight 6:54 AM CST 6:09 PM CST
Nautical Twilight 6:25 AM CST 6:39 PM CST
Astronomical Twilight 5:56 AM CST 7:08 PM CST
Moon 4:33 PM CST (11/26) 5:37 AM CST (11/26)
Length of Visible Light 11h 14m
Length of Day
10h 22m
Waxing Gibbous, 97% of the Moon is Illuminated
Nov 26
Waxing Gibbous
Nov 28
Full
Dec 6
Last Quarter
Dec 13
New
Dec 19
First Quarter

Hourly Weather History & Observations

Time (CST) Temp. Dew Point Humidity Pressure Visibility Wind Dir Wind Speed Gust Speed Precip Events Conditions
12:15 AM 53.6 °F 46.4 °F 77% 29.98 in 10.0 mi SSW 4.6 mph - N/A   Clear
12:35 AM 53.6 °F 46.4 °F 77% 29.96 in 10.0 mi South 4.6 mph - N/A   Clear
12:55 AM 51.8 °F 46.4 °F 82% 29.96 in 10.0 mi South 3.5 mph - N/A   Clear
1:15 AM 53.6 °F 48.2 °F 82% 29.96 in 10.0 mi South 8.1 mph - N/A   Clear
1:35 AM 53.6 °F 50.0 °F 88% 29.96 in 10.0 mi South 6.9 mph - N/A   Clear
1:55 AM 53.6 °F 50.0 °F 88% 29.95 in 10.0 mi SSW 5.8 mph - N/A   Clear
2:15 AM 53.6 °F 51.8 °F 94% 29.96 in 10.0 mi SSW 3.5 mph - N/A   Clear
2:35 AM 53.6 °F 51.8 °F 94% 29.96 in 10.0 mi Calm Calm - N/A   Clear
2:55 AM 53.6 °F 51.8 °F 94% 29.96 in 10.0 mi Calm Calm - N/A   Clear
3:15 AM 51.8 °F 50.0 °F 94% 29.98 in 7.0 mi Calm Calm - N/A   Clear
3:35 AM 50.0 °F 48.2 °F 94% 29.98 in 5.0 mi Calm Calm - N/A   Clear
3:55 AM 50.0 °F 50.0 °F 100% 29.97 in 7.0 mi Calm Calm - N/A   Clear
4:15 AM 48.2 °F 46.4 °F 93% 29.98 in 5.0 mi Calm Calm - N/A   Clear
4:35 AM 48.2 °F 46.4 °F 93% 29.98 in 5.0 mi Calm Calm - N/A   Clear
4:55 AM 46.4 °F 44.6 °F 93% 29.98 in 0.5 mi Calm Calm - N/A Fog Fog
5:15 AM 44.6 °F 44.6 °F 100% 29.98 in 0.5 mi Calm Calm - N/A Fog Fog
5:35 AM 44.6 °F 42.8 °F 93% 29.99 in 3.0 mi Calm Calm - N/A   Overcast
5:55 AM 44.6 °F 44.6 °F 100% 30.00 in 0.5 mi Calm Calm - N/A Fog Fog
6:15 AM 48.2 °F 46.4 °F 93% 30.00 in 0.2 mi Calm Calm - N/A Fog Fog
6:35 AM 51.8 °F 51.8 °F 100% 30.01 in 0.2 mi Calm Calm - N/A Fog Fog
6:55 AM 53.6 °F 53.6 °F 100% 30.01 in 0.5 mi South 3.5 mph - N/A Fog Fog
7:15 AM 53.6 °F 53.6 °F 100% 30.01 in 0.8 mi SSW 6.9 mph - N/A   Overcast
7:35 AM 53.6 °F 53.6 °F 100% 30.01 in 0.5 mi SSW 5.8 mph - N/A Fog Fog
7:55 AM 53.6 °F 53.6 °F 100% 30.02 in 0.2 mi Calm Calm - N/A Fog Fog
8:15 AM 53.6 °F 53.6 °F 100% 30.03 in 0.2 mi Calm Calm - N/A Fog Fog
8:35 AM 53.6 °F 53.6 °F 100% 30.04 in 0.2 mi SSW 3.5 mph - N/A Fog Fog
8:55 AM 53.6 °F 53.6 °F 100% 30.03 in 0.2 mi Calm Calm - N/A Fog Fog
9:15 AM 53.6 °F 53.6 °F 100% 30.04 in 0.2 mi Calm Calm - N/A Fog Fog
9:35 AM 53.6 °F 53.6 °F 100% 30.05 in 0.5 mi SW 3.5 mph - N/A Fog Fog
9:55 AM 53.6 °F 53.6 °F 100% 30.05 in 2.5 mi Calm Calm - N/A   Overcast
10:15 AM 55.4 °F 55.4 °F 100% 30.06 in 10.0 mi SSW 4.6 mph - N/A   Mostly Cloudy
10:35 AM 59.0 °F 55.4 °F 88% 30.05 in 10.0 mi South 4.6 mph - N/A   Scattered Clouds
10:55 AM 62.6 °F 55.4 °F 77% 30.06 in 10.0 mi Calm Calm - N/A   Clear
11:15 AM 66.2 °F 51.8 °F 60% 30.06 in 10.0 mi NW 3.5 mph - N/A   Clear
11:35 AM 69.8 °F 51.8 °F 53% 30.06 in 10.0 mi Calm Calm - N/A   Clear
11:55 AM 71.6 °F 50.0 °F 46% 30.05 in 10.0 mi West 4.6 mph - N/A   Clear
12:15 PM 71.6 °F 48.2 °F 43% 30.04 in 10.0 mi West 3.5 mph - N/A   Clear
12:35 PM 73.4 °F 48.2 °F 41% 30.03 in 10.0 mi Calm Calm - N/A   Clear
12:55 PM 75.2 °F 46.4 °F 36% 30.03 in 10.0 mi WSW 3.5 mph - N/A   Clear
1:15 PM 73.4 °F 46.4 °F 38% 30.03 in 10.0 mi WSW 8.1 mph - N/A   Clear
1:35 PM 71.6 °F 48.2 °F 43% 30.04 in 10.0 mi SW 11.5 mph 16.1 mph N/A   Clear
1:55 PM 69.8 °F 48.2 °F 46% 30.04 in 10.0 mi SW 6.9 mph 16.1 mph N/A   Clear
2:15 PM 69.8 °F 50.0 °F 49% 30.06 in 10.0 mi SW 10.4 mph - N/A   Clear
2:35 PM 68.0 °F 50.0 °F 52% 30.04 in 10.0 mi SSW 9.2 mph - N/A   Clear
2:55 PM 66.2 °F 51.8 °F 60% 30.05 in 10.0 mi SW 8.1 mph - N/A   Clear
3:15 PM 66.2 °F 50.0 °F 56% 30.05 in 10.0 mi SSW 4.6 mph - N/A   Clear
3:35 PM 66.2 °F 50.0 °F 56% 30.06 in 10.0 mi SW 4.6 mph - N/A   Clear
3:55 PM 66.2 °F 50.0 °F 56% 30.07 in 10.0 mi SW 5.8 mph - N/A   Clear
4:15 PM 66.2 °F 50.0 °F 56% 30.07 in 10.0 mi Calm Calm - N/A   Clear
4:35 PM 66.2 °F 50.0 °F 56% 30.08 in 10.0 mi West 3.5 mph - N/A   Clear
4:55 PM 64.4 °F 50.0 °F 59% 30.08 in 10.0 mi Calm Calm - N/A   Clear
5:15 PM 64.4 °F 50.0 °F 59% 30.08 in 10.0 mi Calm Calm - N/A   Clear
5:35 PM 62.6 °F 50.0 °F 63% 30.10 in 10.0 mi North 9.2 mph - N/A   Clear
5:55 PM 60.8 °F 50.0 °F 68% 30.11 in 10.0 mi North 5.8 mph - N/A   Clear
6:15 PM 60.8 °F 50.0 °F 68% 30.13 in 10.0 mi NNE 9.2 mph - N/A   Clear
6:35 PM 62.6 °F 33.8 °F 34% 30.15 in 10.0 mi NNE 11.5 mph - N/A   Clear
6:55 PM 60.8 °F 32.0 °F 34% 30.16 in 10.0 mi NNE 12.7 mph 18.4 mph N/A   Clear
7:15 PM 60.8 °F 32.0 °F 34% 30.17 in 10.0 mi NNE 15.0 mph 20.7 mph N/A   Clear
7:35 PM 59.0 °F 32.0 °F 36% 30.18 in 10.0 mi NNE 13.8 mph 19.6 mph N/A   Clear
7:55 PM 59.0 °F 33.8 °F 39% 30.19 in 10.0 mi NNE 12.7 mph 18.4 mph N/A   Clear
8:15 PM 57.2 °F 33.8 °F 41% 30.21 in 10.0 mi NNE 19.6 mph 25.3 mph N/A   Clear
8:35 PM 55.4 °F 35.6 °F 47% 30.21 in 10.0 mi NNE 16.1 mph 23.0 mph N/A   Clear
8:55 PM 55.4 °F 35.6 °F 47% 30.23 in 10.0 mi NE 16.1 mph 24.2 mph N/A   Clear
9:15 PM 55.4 °F 35.6 °F 47% 30.24 in 10.0 mi NNE 17.3 mph 24.2 mph N/A   Clear
9:35 PM 53.6 °F 35.6 °F 51% 30.25 in 10.0 mi NNE 13.8 mph 19.6 mph N/A   Clear
9:55 PM 53.6 °F 35.6 °F 51% 30.27 in 10.0 mi NNE 12.7 mph - N/A   Clear
10:15 PM 53.6 °F 33.8 °F 47% 30.28 in 10.0 mi NE 9.2 mph - N/A   Clear
10:35 PM 51.8 °F 33.8 °F 50% 30.28 in 10.0 mi NE 13.8 mph 25.3 mph N/A   Clear
10:55 PM 51.8 °F 32.0 °F 47% 30.29 in 10.0 mi NE 12.7 mph - N/A   Clear
11:15 PM 50.0 °F 32.0 °F 50% 30.30 in 10.0 mi NNE 12.7 mph - N/A   Clear
11:35 PM 50.0 °F 32.0 °F 50% 30.30 in 10.0 mi NNE 11.5 mph 20.7 mph N/A   Clear
11:55 PM 48.2 °F 32.0 °F 54% 30.31 in 10.0 mi NNE 12.7 mph - N/A   Clear